Time,TemperatureF,DewpointF,PressureIn,WindDirection,WindDirectionDegrees,WindSpeedMPH,WindSpeedGustMPH,Humidity,HourlyPrecipIn,Conditions,Clouds,dailyrainin,SoftwareType,DateUTC
2013-05-10 00:02:00,64.0,59.0,29.97,NNE,22,0.0,0.0,85,0.00,,,0.00,,2013-05-09 22:02:00,
2013-05-10 00:12:00,64.0,59.0,29.97,NNE,22,0.0,0.0,85,0.00,,,0.00,,2013-05-09 22:12:00,
2013-05-10 00:22:00,64.0,59.0,29.97,NNE,22,0.0,0.0,85,0.00,,,0.00,,2013-05-09 22:22:00,
2013-05-10 00:32:00,64.0,60.0,29.96,NNE,22,0.0,1.0,86,0.00,,,0.00,,2013-05-09 22:32:00,
2013-05-10 00:42:00,64.0,60.0,29.96,NNE,22,0.0,1.0,87,0.00,,,0.00,,2013-05-09 22:42:00,
2013-05-10 00:52:00,64.0,60.0,29.96,NNE,22,0.0,1.0,87,0.00,,,0.00,,2013-05-09 22:52:00,
2013-05-10 01:02:00,63.0,59.0,29.96,NNE,22,2.0,3.0,87,0.00,,,0.00,,2013-05-09 23:02:00,
2013-05-10 01:11:00,64.0,60.0,29.96,NNE,22,0.0,2.0,88,0.00,,,0.00,,2013-05-09 23:11:00,
2013-05-10 01:21:00,64.0,60.0,29.96,NNE,22,0.0,2.0,88,0.00,,,0.00,,2013-05-09 23:21:00,
2013-05-10 01:32:00,64.0,61.0,29.95,NNE,22,1.0,2.0,89,0.00,,,0.00,,2013-05-09 23:32:00,
2013-05-10 01:42:00,64.0,61.0,29.95,NNE,22,0.0,0.0,90,0.00,,,0.00,,2013-05-09 23:42:00,
2013-05-10 01:52:00,64.0,61.0,29.95,NNE,22,0.0,0.0,90,0.00,,,0.00,,2013-05-09 23:52:00,
2013-05-10 02:01:00,63.0,60.0,29.94,NNE,22,3.0,3.0,90,0.00,,,0.00,,2013-05-10 00:01:00,
2013-05-10 02:11:00,63.0,60.0,29.94,NNE,22,3.0,3.0,90,0.00,,,0.00,,2013-05-10 00:11:00,
2013-05-10 02:21:00,63.0,60.0,29.94,NNE,22,3.0,3.0,90,0.00,,,0.00,,2013-05-10 00:21:00,
2013-05-10 02:32:00,62.0,59.0,29.94,NNE,22,2.0,3.0,90,0.00,,,0.00,,2013-05-10 00:32:00,
2013-05-10 02:42:00,62.0,59.0,29.94,NNE,22,2.0,3.0,90,0.00,,,0.00,,2013-05-10 00:42:00,
2013-05-10 02:52:00,62.0,59.0,29.94,NNE,22,2.0,3.0,90,0.00,,,0.00,,2013-05-10 00:52:00,
2013-05-10 03:01:00,62.0,59.0,29.94,NNE,22,2.0,3.0,90,0.00,,,0.00,,2013-05-10 01:01:00,
2013-05-10 03:11:00,62.0,59.0,29.94,NNE,22,2.0,3.0,90,0.00,,,0.00,,2013-05-10 01:11:00,
2013-05-10 03:21:00,62.0,59.0,29.94,NNE,22,2.0,3.0,90,0.00,,,0.00,,2013-05-10 01:21:00,
2013-05-10 03:32:00,63.0,60.0,29.93,NNE,22,1.0,1.0,89,0.00,,,0.00,,2013-05-10 01:32:00,
2013-05-10 03:42:00,63.0,60.0,29.93,NNE,22,1.0,1.0,89,0.00,,,0.00,,2013-05-10 01:42:00,
2013-05-10 03:52:00,63.0,60.0,29.93,NNE,22,1.0,1.0,89,0.00,,,0.00,,2013-05-10 01:52:00,
2013-05-10 04:01:00,63.0,60.0,29.93,NNE,22,0.0,1.0,89,0.00,,,0.00,,2013-05-10 02:01:00,
2013-05-10 04:11:00,63.0,60.0,29.93,NNE,22,0.0,1.0,89,0.00,,,0.00,,2013-05-10 02:11:00,
2013-05-10 04:21:00,63.0,60.0,29.93,NNE,22,0.0,1.0,89,0.00,,,0.00,,2013-05-10 02:21:00,
2013-05-10 04:31:00,63.0,60.0,29.93,NNE,22,0.0,1.0,90,0.00,,,0.00,,2013-05-10 02:31:00,
2013-05-10 04:42:00,63.0,60.0,29.93,NNE,22,2.0,3.0,90,0.00,,,0.00,,2013-05-10 02:42:00,
2013-05-10 04:52:00,63.0,60.0,29.93,NNE,22,2.0,3.0,90,0.00,,,0.00,,2013-05-10 02:52:00,
2013-05-10 05:01:00,63.0,60.0,29.92,NNE,22,0.0,0.0,90,0.00,,,0.00,,2013-05-10 03:01:00,
2013-05-10 05:11:00,63.0,60.0,29.92,NNE,22,0.0,0.0,90,0.00,,,0.00,,2013-05-10 03:11:00,
2013-05-10 05:21:00,63.0,60.0,29.92,NNE,22,0.0,0.0,90,0.00,,,0.00,,2013-05-10 03:21:00,
2013-05-10 05:32:00,63.0,60.0,29.92,NNE,22,0.0,1.0,91,0.00,,,0.00,,2013-05-10 03:32:00,
2013-05-10 05:42:00,63.0,60.0,29.92,NNE,22,0.0,1.0,91,0.00,,,0.00,,2013-05-10 03:42:00,
2013-05-10 05:53:00,63.0,60.0,29.92,NNE,22,0.0,1.0,91,0.00,,,0.00,,2013-05-10 03:53:00,
2013-05-10 06:02:00,63.0,60.0,29.93,NNE,22,0.0,0.0,91,0.00,,,0.00,,2013-05-10 04:02:00,
2013-05-10 06:12:00,63.0,60.0,29.93,NNE,22,0.0,0.0,91,0.00,,,0.00,,2013-05-10 04:12:00,
2013-05-10 06:22:00,63.0,60.0,29.94,NNE,22,0.0,1.0,91,0.00,,,0.00,,2013-05-10 04:22:00,
2013-05-10 06:33:00,63.0,61.0,29.94,NNE,22,1.0,2.0,92,0.00,,,0.00,,2013-05-10 04:33:00,
2013-05-10 06:42:00,63.0,61.0,29.94,NNE,22,1.0,2.0,92,0.00,,,0.00,,2013-05-10 04:42:00,
2013-05-10 06:52:00,63.0,61.0,29.94,NNE,22,1.0,2.0,92,0.00,,,0.00,,2013-05-10 04:52:00,
2013-05-10 07:02:00,64.0,62.0,29.94,NNE,22,0.0,0.0,92,0.00,,,0.00,,2013-05-10 05:02:00,
2013-05-10 07:12:00,64.0,61.0,29.94,NNE,22,0.0,0.0,91,0.00,,,0.00,,2013-05-10 05:12:00,
2013-05-10 07:21:00,64.0,61.0,29.94,NNE,22,0.0,0.0,91,0.00,,,0.00,,2013-05-10 05:21:00,
2013-05-10 07:32:00,66.0,63.0,29.94,NNE,22,0.0,0.0,89,0.00,,,0.00,,2013-05-10 05:32:00,
2013-05-10 07:42:00,66.0,62.0,29.94,NNE,22,1.0,2.0,88,0.00,,,0.00,,2013-05-10 05:42:00,
2013-05-10 07:52:00,66.0,62.0,29.94,NNE,22,1.0,2.0,88,0.00,,,0.00,,2013-05-10 05:52:00,
2013-05-10 08:01:00,66.0,62.0,29.95,WNW,300,3.0,3.0,87,0.00,,,0.00,,2013-05-10 06:01:00,
2013-05-10 08:11:00,66.0,62.0,29.95,WNW,300,3.0,3.0,87,0.00,,,0.00,,2013-05-10 06:11:00,
2013-05-10 08:21:00,66.0,62.0,29.95,WNW,300,3.0,3.0,87,0.00,,,0.00,,2013-05-10 06:21:00,
2013-05-10 08:32:00,66.0,62.0,29.96,West,259,0.0,3.0,87,0.00,,,0.00,,2013-05-10 06:32:00,
2013-05-10 08:41:00,66.0,62.0,29.96,West,259,2.0,4.0,87,0.00,,,0.00,,2013-05-10 06:41:00,
2013-05-10 08:52:00,66.0,62.0,29.96,West,259,2.0,4.0,87,0.00,,,0.00,,2013-05-10 06:52:00,
2013-05-10 09:01:00,67.0,63.0,29.95,WSW,258,2.0,3.0,86,0.00,,,0.00,,2013-05-10 07:01:00,
2013-05-10 09:11:00,67.0,63.0,29.95,WSW,258,2.0,3.0,86,0.00,,,0.00,,2013-05-10 07:11:00,
2013-05-10 09:21:00,67.0,62.0,29.95,SSW,200,3.0,5.0,83,0.00,,,0.00,,2013-05-10 07:21:00,
2013-05-10 09:31:00,68.0,63.0,29.96,South,187,5.0,5.0,83,0.00,,,0.00,,2013-05-10 07:31:00,
2013-05-10 09:41:00,68.0,63.0,29.96,South,187,5.0,5.0,83,0.00,,,0.00,,2013-05-10 07:41:00,
2013-05-10 09:52:00,68.0,63.0,29.96,South,187,5.0,5.0,83,0.00,,,0.00,,2013-05-10 07:52:00,
2013-05-10 10:02:00,67.0,61.0,29.96,SSW,213,2.0,6.0,82,0.00,,,0.00,,2013-05-10 08:02:00,
2013-05-10 10:11:00,67.0,61.0,29.96,SSW,213,2.0,6.0,82,0.00,,,0.00,,2013-05-10 08:11:00,
2013-05-10 10:21:00,67.0,61.0,29.96,SSW,213,2.0,6.0,82,0.00,,,0.00,,2013-05-10 08:21:00,
2013-05-10 10:32:00,67.0,61.0,29.96,SW,217,1.0,9.0,81,0.00,,,0.00,,2013-05-10 08:32:00,
2013-05-10 10:41:00,67.0,61.0,29.96,SW,217,1.0,9.0,81,0.00,,,0.00,,2013-05-10 08:41:00,
2013-05-10 10:52:00,67.0,61.0,29.96,SW,217,1.0,9.0,81,0.00,,,0.00,,2013-05-10 08:52:00,
2013-05-10 11:01:00,68.0,62.0,29.96,SW,227,6.0,8.0,82,0.00,,,0.00,,2013-05-10 09:01:00,
2013-05-10 11:11:00,68.0,62.0,29.96,SW,227,6.0,8.0,82,0.00,,,0.00,,2013-05-10 09:11:00,
2013-05-10 11:21:00,67.0,62.0,29.96,SSW,195,7.0,8.0,83,0.00,,,0.00,,2013-05-10 09:21:00,
2013-05-10 11:32:00,67.0,62.0,29.96,SSW,195,7.0,8.0,83,0.00,,,0.00,,2013-05-10 09:32:00,
2013-05-10 11:42:00,67.0,62.0,29.96,SSW,195,7.0,8.0,83,0.00,,,0.00,,2013-05-10 09:42:00,
2013-05-10 11:52:00,67.0,62.0,29.96,SSW,195,7.0,8.0,83,0.00,,,0.00,,2013-05-10 09:52:00,
2013-05-10 12:02:00,68.0,62.0,29.97,SW,232,9.0,10.0,82,0.00,,,0.00,,2013-05-10 10:02:00,
2013-05-10 12:12:00,68.0,62.0,29.97,SW,232,9.0,10.0,82,0.00,,,0.00,,2013-05-10 10:12:00,
2013-05-10 12:23:00,68.0,62.0,29.96,WSW,246,3.0,9.0,82,0.00,,,0.00,,2013-05-10 10:23:00,
2013-05-10 12:32:00,69.0,63.0,29.96,SW,232,8.0,10.0,81,0.00,,,0.00,,2013-05-10 10:32:00,
2013-05-10 12:41:00,69.0,63.0,29.96,SW,232,8.0,10.0,81,0.00,,,0.00,,2013-05-10 10:41:00,
2013-05-10 12:52:00,68.0,63.0,29.96,WSW,238,6.0,10.0,83,0.00,,,0.00,,2013-05-10 10:52:00,
2013-05-10 13:02:00,68.0,62.0,29.96,SW,228,11.0,12.0,81,0.00,,,0.00,,2013-05-10 11:02:00,
2013-05-10 13:12:00,69.0,63.0,29.96,SW,224,7.0,10.0,80,0.00,,,0.00,,2013-05-10 11:12:00,
2013-05-10 13:21:00,69.0,63.0,29.96,SW,224,7.0,10.0,80,0.00,,,0.00,,2013-05-10 11:21:00,
2013-05-10 13:31:00,69.0,61.0,29.95,WSW,242,5.0,9.0,77,0.00,,,0.00,,2013-05-10 11:31:00,
2013-05-10 13:42:00,69.0,61.0,29.95,WSW,242,5.0,9.0,77,0.00,,,0.00,,2013-05-10 11:42:00,
2013-05-10 13:51:00,69.0,61.0,29.95,WSW,242,5.0,9.0,77,0.00,,,0.00,,2013-05-10 11:51:00,
2013-05-10 14:01:00,68.0,61.0,29.95,SW,223,6.0,10.0,78,0.00,,,0.00,,2013-05-10 12:01:00,
2013-05-10 14:11:00,68.0,61.0,29.95,SW,223,6.0,10.0,78,0.00,,,0.00,,2013-05-10 12:11:00,
2013-05-10 14:21:00,68.0,62.0,29.96,SSW,199,5.0,10.0,81,0.00,,,0.00,,2013-05-10 12:21:00,
2013-05-10 14:32:00,68.0,62.0,29.96,SSW,199,5.0,10.0,81,0.00,,,0.00,,2013-05-10 12:32:00,
2013-05-10 14:41:00,68.0,62.0,29.96,SSW,199,5.0,10.0,81,0.00,,,0.00,,2013-05-10 12:41:00,
2013-05-10 14:51:00,68.0,62.0,29.96,SSW,199,5.0,10.0,81,0.00,,,0.00,,2013-05-10 12:51:00,
2013-05-10 15:01:00,68.0,61.0,29.95,WNW,296,5.0,9.0,78,0.00,,,0.00,,2013-05-10 13:01:00,
2013-05-10 15:11:00,68.0,61.0,29.95,WNW,296,5.0,9.0,78,0.00,,,0.00,,2013-05-10 13:11:00,
2013-05-10 15:21:00,69.0,61.0,29.95,North,360,6.0,10.0,76,0.00,,,0.00,,2013-05-10 13:21:00,
2013-05-10 15:31:00,69.0,60.0,29.94,WSW,254,10.0,12.0,72,0.00,,,0.00,,2013-05-10 13:31:00,
2013-05-10 15:41:00,69.0,60.0,29.94,West,272,6.0,10.0,73,0.00,,,0.00,,2013-05-10 13:41:00,
2013-05-10 15:52:00,69.0,60.0,29.94,West,272,6.0,10.0,73,0.00,,,0.00,,2013-05-10 13:52:00,
2013-05-10 16:01:00,69.0,56.0,29.94,West,265,3.0,9.0,64,0.00,,,0.00,,2013-05-10 14:01:00,
2013-05-10 16:11:00,69.0,56.0,29.94,West,265,3.0,9.0,64,0.00,,,0.00,,2013-05-10 14:11:00,
2013-05-10 16:21:00,69.0,59.0,29.94,West,272,4.0,10.0,70,0.00,,,0.00,,2013-05-10 14:21:00,
2013-05-10 16:32:00,69.0,60.0,29.94,West,262,5.0,10.0,74,0.00,,,0.00,,2013-05-10 14:32:00,
2013-05-10 16:41:00,68.0,60.0,29.94,West,273,7.0,8.0,76,0.00,,,0.00,,2013-05-10 14:41:00,
2013-05-10 16:51:00,68.0,60.0,29.94,West,273,7.0,8.0,76,0.00,,,0.00,,2013-05-10 14:51:00,
2013-05-10 17:01:00,68.0,61.0,29.94,WSW,258,4.0,9.0,77,0.00,,,0.00,,2013-05-10 15:01:00,
2013-05-10 17:20:00,-999.0,-99.9,29.93,West,259,3.0,6.0,77,0.00,,,0.00,,2013-05-10 15:20:00,
2013-05-10 17:32:00,68.0,61.0,29.93,WSW,239,6.0,10.0,77,0.00,,,0.00,,2013-05-10 15:32:00,
2013-05-10 17:42:00,68.0,61.0,29.93,West,261,6.0,8.0,77,0.00,,,0.00,,2013-05-10 15:42:00,
2013-05-10 17:52:00,68.0,61.0,29.93,West,261,6.0,8.0,77,0.00,,,0.00,,2013-05-10 15:52:00,
2013-05-10 18:02:00,68.0,61.0,29.93,WSW,248,4.0,9.0,77,0.00,,,0.00,,2013-05-10 16:02:00,
2013-05-10 18:12:00,68.0,61.0,29.93,WSW,248,4.0,9.0,77,0.00,,,0.00,,2013-05-10 16:12:00,
2013-05-10 18:23:00,68.0,61.0,29.93,WSW,248,4.0,9.0,77,0.00,,,0.00,,2013-05-10 16:23:00,
2013-05-10 18:32:00,68.0,62.0,29.93,West,260,4.0,6.0,80,0.00,,,0.00,,2013-05-10 16:32:00,
2013-05-10 18:42:00,67.0,60.0,29.93,West,268,5.0,8.0,78,0.00,,,0.00,,2013-05-10 16:42:00,
2013-05-10 18:52:00,67.0,60.0,29.93,West,268,5.0,8.0,78,0.00,,,0.00,,2013-05-10 16:52:00,
2013-05-10 19:02:00,67.0,60.0,29.93,West,281,2.0,7.0,79,0.00,,,0.00,,2013-05-10 17:02:00,
2013-05-10 19:12:00,67.0,60.0,29.93,West,281,2.0,7.0,79,0.00,,,0.00,,2013-05-10 17:12:00,
2013-05-10 19:21:00,67.0,61.0,29.92,West,271,1.0,5.0,80,0.00,,,0.00,,2013-05-10 17:21:00,
2013-05-10 19:32:00,67.0,61.0,29.92,WSW,241,3.0,6.0,82,0.00,,,0.00,,2013-05-10 17:32:00,
2013-05-10 19:42:00,67.0,61.0,29.92,WSW,248,2.0,3.0,81,0.00,,,0.00,,2013-05-10 17:42:00,
2013-05-10 19:51:00,67.0,61.0,29.92,WSW,248,2.0,3.0,81,0.00,,,0.00,,2013-05-10 17:51:00,
2013-05-10 20:10:00,-999.0,-99.9,29.92,WSW,248,1.0,3.0,81,0.00,,,0.00,,2013-05-10 18:10:00,
2013-05-10 20:21:00,67.0,61.0,29.91,WSW,248,0.0,2.0,82,0.00,,,0.00,,2013-05-10 18:21:00,
2013-05-10 20:34:00,67.0,62.0,29.92,West,262,2.0,4.0,83,0.00,,,0.00,,2013-05-10 18:34:00,
2013-05-10 20:43:00,66.0,61.0,29.92,West,274,4.0,5.0,83,0.00,,,0.00,,2013-05-10 18:43:00,
2013-05-10 20:54:00,66.0,61.0,29.92,West,274,4.0,5.0,83,0.00,,,0.00,,2013-05-10 18:54:00,
2013-05-10 21:02:00,66.0,61.0,29.92,West,279,2.0,5.0,84,0.00,,,0.00,,2013-05-10 19:02:00,
2013-05-10 21:11:00,66.0,61.0,29.92,West,279,2.0,5.0,84,0.00,,,0.00,,2013-05-10 19:11:00,
2013-05-10 21:21:00,66.0,61.0,29.93,West,281,0.0,5.0,85,0.00,,,0.00,,2013-05-10 19:21:00,
2013-05-10 21:32:00,66.0,61.0,29.93,West,281,0.0,2.0,85,0.00,,,0.00,,2013-05-10 19:32:00,
2013-05-10 21:42:00,66.0,61.0,29.93,West,281,0.0,2.0,85,0.00,,,0.00,,2013-05-10 19:42:00,
2013-05-10 21:52:00,66.0,61.0,29.93,West,281,0.0,2.0,85,0.00,,,0.00,,2013-05-10 19:52:00,
2013-05-10 22:01:00,65.0,61.0,29.93,West,281,0.0,2.0,86,0.00,,,0.00,,2013-05-10 20:01:00,
2013-05-10 22:12:00,65.0,61.0,29.93,West,281,0.0,2.0,86,0.00,,,0.00,,2013-05-10 20:12:00,
2013-05-10 22:21:00,65.0,61.0,29.93,West,281,0.0,2.0,86,0.00,,,0.00,,2013-05-10 20:21:00,
2013-05-10 22:31:00,65.0,61.0,29.94,West,281,0.0,2.0,87,0.00,,,0.00,,2013-05-10 20:31:00,
2013-05-10 22:41:00,65.0,61.0,29.94,West,281,0.0,2.0,87,0.00,,,0.00,,2013-05-10 20:41:00,
2013-05-10 22:52:00,65.0,61.0,29.94,West,281,1.0,2.0,87,0.00,,,0.00,,2013-05-10 20:52:00,
2013-05-10 23:01:00,64.0,60.0,29.94,West,281,2.0,2.0,87,0.00,,,0.00,,2013-05-10 21:01:00,
2013-05-10 23:11:00,64.0,60.0,29.94,West,281,2.0,3.0,87,0.00,,,0.00,,2013-05-10 21:11:00,
2013-05-10 23:24:00,64.0,60.0,29.94,West,281,2.0,3.0,87,0.00,,,0.00,,2013-05-10 21:24:00,
2013-05-10 23:32:00,64.0,60.0,29.94,West,281,2.0,2.0,87,0.00,,,0.00,,2013-05-10 21:32:00,
2013-05-10 23:42:00,64.0,60.0,29.94,West,281,0.0,3.0,87,0.00,,,0.00,,2013-05-10 21:42:00,
2013-05-10 23:52:00,64.0,60.0,29.94,West,281,0.0,3.0,87,0.00,,,0.00,,2013-05-10 21:52:00,